,

(GMT )
Aasiaat

Weather History for BGAA - July, 2019

Change the Weather History Date:

Monday, July 22, 2019

  Actual Average Record
Temperature  
Mean Temperature 44 °F -  
Max Temperature 49 °F - - ()
Min Temperature 40 °F - - ()
Degree Days  
Heating Degree Days 20    
Moisture  
Dew Point 42 °F    
Average Humidity 94    
Maximum Humidity 100    
Minimum Humidity 78    
Precipitation  
Precipitation 0.00 in - - ()
Sea Level Pressure  
Sea Level Pressure 29.93 in    
Wind  
Wind Speed 5 mph ()    
Max Wind Speed 9 mph    
Max Gust Speed -    
Visibility 1.1 miles    
Events Fog    
T = Trace of Precipitation, MM = Missing Value Source: Averaged Metar Reports

Daily Weather History Graph

Daily Weather History Graph

Search for Another Location

Airport or City:

Astronomy

Jul. 22, 2019 Rise Set
Actual Time 2:03 AM -02 12:55 AM -02
Civil Twilight Sun does not set Sun does not set
Nautical Twilight Sun does not set Sun does not set
Astronomical Twilight Sun does not set Sun does not set
Moon 12:31 AM -02 (7/22) 11:00 AM -02 (7/22)
Length of Visible Light 24h 00m
Length of Day
22h 52m
Waning Gibbous, 73% of the Moon is Illuminated
Jul 22
Waning Gibbous
Jul 24
Last Quarter
Aug 1
New
Aug 7
First Quarter
Aug 15
Full

Hourly Weather History & Observations

Time (-02) Temp. Dew Point Humidity Pressure Visibility Wind Dir Wind Speed Gust Speed Precip Events Conditions
12:00 AM 44 °F 42 °F 89% 29.95 in 31 mi West 4.6 mph - -   Scattered Clouds
1:00 AM 42 °F 41 °F 94% 29.95 in 31 mi West 3.5 mph - -   Scattered Clouds
2:00 AM 43 °F 42 °F 97% 29.95 in 31 mi SSW 8.1 mph - -   Overcast
3:00 AM 42 °F 42 °F 100% 29.95 in 4 mi SW 9.2 mph - -   Mist
4:00 AM 41 °F 41 °F 100% 29.95 in 1 mi West 3.5 mph - - Fog Fog
5:00 AM 40 °F 40 °F 98% 29.96 in 0 mi WNW 3.5 mph - - Fog Patches of Fog
6:00 AM 40 °F 40 °F 98% 29.96 in 0 mi WNW 3.5 mph - - Fog Fog
7:00 AM 41 °F 41 °F 98% 29.96 in 0 mi West 1.2 mph - - Fog Fog
8:00 AM 40 °F 40 °F 100% 29.97 in 6 mi NNW 2.3 mph - - Fog Fog
9:00 AM 40 °F 40 °F 100% 29.97 in 31 mi North 3.5 mph - -   Overcast
10:00 AM 42 °F 41 °F 97% 29.96 in 0 mi NNW 3.5 mph - - Fog Fog
11:00 AM 42 °F 42 °F 99% 29.96 in 0 mi North 4.6 mph - - Fog Fog
12:00 PM 42 °F 42 °F 99% 29.95 in 0 mi North 5.8 mph - - Fog Fog
1:00 PM 42 °F 42 °F 100% 29.94 in 1 mi North 8.1 mph - - Fog Fog
2:00 PM 43 °F 43 °F 99% 29.93 in 0 mi North 8.1 mph - - Fog Fog
3:00 PM 43 °F 43 °F 99% 29.93 in 28 mi North 5.8 mph - - Fog Fog
4:00 PM 46 °F 44 °F 89% 29.92 in 31 mi North 6.9 mph - -   Clear
5:00 PM 46 °F 44 °F 90% 29.91 in 31 mi North 8.1 mph - -   Scattered Clouds
7:00 PM 47 °F 44 °F 86% 29.90 in 31 mi NNE 6.9 mph - -  
8:00 PM 49 °F 44 °F 78% 29.89 in 31 mi North 6.9 mph - -  
9:00 PM 48 °F 45 °F 84% 29.88 in 31 mi North 6.9 mph - -  
10:00 PM 48 °F 45 °F 86% 29.88 in 31 mi NNE 5.8 mph - -  
11:00 PM 49 °F 46 °F 86% 29.87 in 31 mi NNE 5.8 mph - -